Location: Newark
(41.9364°N, 2.8061°E)
Time: 12:45:07
(UTC+00:00)

A-11 Canister half - Pass Details

Date: 26 February 2020
Orbit: 1516 x 1683 km, 47.2° (Epoch: 05 April)

Event Time Altitude Azimuth Distance (km) Brightness Sun altitude
Rises 18:22:42 0° 285° (WNW) 4,887 13.3 -9.7°
Reaches altitude 10° 18:25:56 10° 288° (WNW) 3,880 12.4 -10.3°
Maximum altitude 18:35:48 69° 11° (NNE) 1,692 9.2 -12.1°
Enters shadow 18:43:39 17° 93° (E) 3,235 10.0 -13.6°
